Showing default

KUIPER-00020, 63735

Orbit data source: Space-Track

KUIPER-00020, 63735 is a payload satellite owned by Kuiper Systems (US) in LEO that was launched on Mon, 28 Apr 2025 UTC via an ATLAS V 551 launch vehicle from the Air Force Eastern Test Range (AFETR). Payload-class satellites include a variety of spacecraft equipped with specific instruments for various scientific and technological missions. These include communications satellites like Starlink; space stations such as the ISS; scientific satellites like the Hubble; Earth observation satellites from companies like Planet Labs, Umbra, and HawkEye 360; GPS; miniature CubeSats for education and research; and military/defense satellites.

Loading next visibility...
Identifier
63735, 2025-088M
Orbit
LEO
Country
Flag of USUS
Related business
Manufacturer
Kuiper Systems
Mission
Operational Commercial Communications
Bus & Motor
KUIPER, Unknown motor
Mass
~490 kg wet, ~490 kg dry
Launch date (UTC)
2025-04-28 (8 months ago)
Launch vehicle
ATLAS V 551
Launch site
Air Force Eastern Test Range (AFETR)
Object type
Payload
Rocket body
Debris
Shape & HBR
Box + 2 Pan, 3.4 m
Radar Cross Section
2.326 m², Large (>1 m²)

Expand to show TLE details & history
Last TLE update: 19 hours ago

TLE from 19 hours ago
0 KUIPER-00020
1 63735U 25088M   25348.83475502  .00001024  00000-0  16357-3 0  9995
2 63735  51.9008 118.3059 0009166 154.3904 205.7514 14.79933607 35094
Epoch: 2025-12-14T20:02Z
TLE epoch observation values (Epoch: 2025-12-14T20:02:02.833Z)
Latitude
-0.00003°
Longitude
94.05209°
Altitude
636.067 km
Speed
7.538 km/s
True Right ascension
07h 53m 13s
True Declination
0° 00' 00"
Sunlit
Object was in full shadow at epoch
Visualization orbit readout
Latitude
Unknown
Longitude
Unknown
Altitude
Unknown
Speed
Unknown
Apparent Right ascension
Unknown
Apparent Declination
Unknown
Sunlit
N/A
Visualization observer readout
Local Sidereal Time
13:22:57
Azimuth
Unknown
Elevation
Unknown
Doppler factor
Unknown
Orbital elements
Apogee altitude
636.408 km
Perigee altitude
623.561 km
Semi-major axis
7,008.122 km
Eccentricity
0.00092
Inclination
51.9008°
RAAN
118.3059°
Arg. of periapsis
154.3904°
True anomaly
205.70581°
Mean anomaly
205.7514°
Eccentric anomaly
205.7286°
Mean motion
3.69948 °/min
Orbital period
97.31 mins
BSTAR
0.00016357
Loading maneuver chart data...
Computing Atmospheric mass density...
Loading historical data...
Loading historical data...
Loading historical data...
Loading historical data...
Loading historical data...
Loading historical data...
Loading historical data...

Documentation

Showing up to 5 results
|